Regional Weather Roundup
Issued by NWS

Home | Current Version | Previous Version | Graphics & Text | Print | Product List | Glossary On
Versions: 1 2 3 4 5 6 7 8 9 10 11 12 13 14 15 16 17 18 19 20 21 22 23 24 25 26 27 28 29 30 31 32 33 34 35 36 37 38 39 40 41 42 43 44 45 46 47 48 49 50
097
ASUS44 KLIX 011301
RWRLA
LOUISIANA WEATHER ROUNDUP
NATIONAL WEATHER SERVICE NEW ORLEANS LA
800 AM CDT MON SEP 01 2014

NOTE: "FAIR" INDICATES FEW OR NO CLOUDS BELOW 12,000 FEET WITH NO
      SIGNIFICANT WEATHER AND/OR OBSTRUCTIONS TO VISIBILITY.
      SKY/WX - SKY CONDITION AND SIGNIFICANT WEATHER.
      TMP - AIR TEMPERATURE.    DP   - DEWPOINT TEMPERATURE.
      RH  - RELATIVE HUMIDITY.  PRES - PRESSURE.
      HX  - HEAT INDEX.         WCI  - WIND CHILL INDEX.

*  THESE STATIONS ARE NOT NWS OR FAA STATIONS AND ARE NOT UNDER
   NWS QUALITY CONTROL.

LAZ040-048-061>063-065-066-069-011400-
SOUTHEAST LOUISIANA

CITY           SKY/WX    TMP DP  RH WIND       PRES   REMARKS
N.O. AUDUBON   NOT AVBL
N.O. INTL ARPT PTSUNNY   83  76  79 SE7       30.04R
N.O. LAKEFRONT SUNNY     83  78  85 E6        30.05R
N.O. DOWNTOWN* FAIR      82  73  74 SE6       30.05R
SLIDELL        SUNNY     80  75  84 CALM      30.05R
BATON ROUGE    SUNNY     77  75  93 E5        30.04R
BOOTHVILLE     MOSUNNY   84  77  79 SE7       30.05R
BELLE CHASSE   SUNNY     84  76  76 SE6       30.04R THUNDER
BOGALUSA*        N/A     75  72  90 CALM      30.08R
GALLIANO*      NOT AVBL
NEW ROADS*     FAIR      77  76  98 CALM      30.04R FOG
GONZALES*      FAIR      78  78 100 CALM      30.03R
HAMMOND*       NOT AVBL
HOUMA*         MOSUNNY   79  75  89 E2        30.03R
PORT FOURCHON* MOSUNNY   86  75  70 SE12      30.03S HX  95

$$

LAZ041-044-053-054-011400-
SOUTHWEST LOUISIANA

CITY           SKY/WX    TMP DP  RH WIND       PRES   REMARKS
LAKE CHARLES   SUNNY     79  78  97 SE7       29.99R
LAFAYETTE      PTSUNNY   78  77  96 E3        30.02R
PATTERSON        N/A     79  77  94 E3        30.05R
SALT POINT       N/A     83  79  88 E3        30.01R
NEW IBERIA     SUNNY     80  78  94 E6        30.02S
CHENAULT AIRPK SUNNY     79  77  94 CALM      30.00R

$$

LAZ027-028-011400-
CENTRAL LOUISIANA

CITY           SKY/WX    TMP DP  RH WIND       PRES   REMARKS
FORT POLK      CLOUDY    77  77 100 S6        30.00R
ALEXANDRIA INT CLOUDY    76  76 100 SE10      29.99S FOG
ALEXANDRIA     CLOUDY    76  73  91 CALM      30.02R FOG

$$

LAZ001-002-011400-
NORTHWEST LOUISIANA

CITY           SKY/WX    TMP DP  RH WIND       PRES   REMARKS
SHREVEPORT     MOSUNNY   77  74  90 S6        29.98S
BARKSDALE AFB  CLOUDY    77  77 100 SE6       29.99S
DTN SHREVEPORT PTSUNNY   77  74  90 S8        29.98F

$$

LAZ014-016-011400-
NORTHEAST LOUISIANA

CITY           SKY/WX    TMP DP  RH WIND       PRES   REMARKS
MONROE         CLOUDY    76  74  93 S5        30.03S FOG
TALLULAH       MOSUNNY   77  75  93 SE5       30.04R

$$




USA.gov is the U.S. government's official web portal to all federal, state and local government web resources and services.